Temperature
20 20 20 20 20 20 20 20 20 20 20 20 19 19 19 19 19 19 19 19 19 19 19 19 19 19 19 19 19 19 19 18 18 18 18 18 18 18 18 18 18 18 18
21 20 20 20 20 20 20 20 20 20 20 20 19 19 19 19 19 19 19 19 19 19 19 19 19 19 19 19 19 18 18 18 18 18 18 18 18 18 18 18 18 18 18
21 20 20 20 20 20 20 20 20 20 20 19 19 19 19 19 19 19 19 19 19 19 19 19 19 19 19 19 19 18 18 18 18 18 18 18 18 18 18 18 18 18 18
21 21 20 20 20 20 20 20 20 20 20 20 19 19 19 19 19 19 19 19 19 19 19 19 19 19 19 19 19 18 18 18 18 18 18 18 18 18 18 18 18 18 18
21 21 21 20 20 20 20 20 20 20 19 19 19 19 19 19 19 19 19 19 19 19 19 19 19 19 19 19 19 19 18 18 18 18 18 18 18 18 18 18 18 18 18
21 21 21 20 20 20 20 20 20 20 19 20 19 19 19 19 19 19 19 19 19 19 19 19 19 19 19 19 19 18 18 18 18 18 18 18 18 18 18 18 18 18 18
21 21 21 21 20 20 20 20 20 20 20 19 19 19 19 19 19 19 19 19 19 19 19 19 19 19 19 19 18 18 18 18 18 18 18 18 18 18 18 18 18 18 18
21 21 21 21 20 20 20 20 20 20 20 19 19 19 19 19 19 19 19 19 19 19 19 19 19 19 19 19 18 18 18 18 18 18 18 18 18 18 18 18 18 18 18
21 21 21 21 20 20 20 20 20 20 20 19 19 19 19 19 19 19 19 19 19 19 19 19 19 19 19 19 18 18 19 19 19 19 18 18 18 18 18 18 18 18 18
21 21 21 21 20 20 20 20 20 20 20 19 19 19 19 19 19 19 19 19 19 19 19 19 19 19 19 18 18 18 19 19 19 19 19 18 18 18 18 18 18 18 18
21 21 21 21 21 20 20 20 20 20 20 19 19 19 19 19 19 19 19 19 19 19 19 19 19 19 19 19 18 18 18 19 19 19 19 18 18 18 18 18 18 18 18
21 21 21 21 21 20 20 20 20 20 20 19 19 19 19 19 19 19 19 19 19 19 19 19 19 19 18 18 18 18 18 18 18 19 19 19 18 18 18 18 18 18 18
21 21 21 21 21 21 20 20 20 20 20 19 19 19 19 19 19 19 19 19 19 19 19 19 18 19 18 18 18 18 18 18 18 18 18 18 18 18 18 18 18 18 18
21 21 21 21 21 21 20 20 20 20 20 20 19 19 19 19 19 19 19 19 19 19 19 19 18 18 18 18 18 18 18 18 18 18 18 18 18 18 18 18 18 18 18
22 21 21 21 21 21 20 20 20 20 20 20 20 19 19 19 19 19 19 19 19 19 19 19 18 18 18 18 18 18 18 18 18 18 18 18 18 18 18 18 18 18 18
22 22 21 21 21 21 21 20 20 20 20 20 20 20 19 19 19 19 19 19 19 19 19 19 18 18 18 18 18 18 18 18 18 18 18 18 18 18 18 18 18 18 18
22 22 21 21 21 21 21 21 20 20 20 20 20 20 20 19 19 19 19 19 19 19 19 18 18 18 18 18 18 18 18 18 18 18 18 18 18 18 18 18 18 18 18
22 22 22 21 21 21 21 21 21 20 20 20 20 20 20 19 19 19 19 19 19 19 19 18 18 18 18 18 18 18 18 18 18 18 18 18 18 18 18 17 17 17 17
22 22 22 21 21 21 21 21 21 20 20 20 20 20 20 19 19 19 19 19 19 18 18 18 18 18 18 18 18 18 18 18 18 18 18 18 18 17 17 17 17 17 17
22 22 22 22 21 21 21 21 21 20 20 20 20 20 20 19 19 19 19 19 19 18 18 18 18 18 18 18 18 18 18 18 18 18 18 18 18 17 17 17 17 17 17
22 22 22 22 21 21 21 21 21 20 20 20 20 20 19 19 19 19 19 19 19 19 18 18 18 18 18 18 18 18 18 18 18 18 18 18 18 17 17 17 17 17 17
23 22 22 22 22 21 21 21 21 20 20 20 20 20 19 19 19 19 19 19 19 18 18 18 18 18 18 18 18 18 18 18 18 18 18 18 17 17 17 17 17 17 17
23 22 22 22 22 21 21 21 20 20 20 20 19 19 19 19 19 19 19 19 18 18 18 18 18 18 18 18 18 18 17 17 17 17 17 17 17 17 17 17 17 17 17
23 23 22 22 22 21 21 21 20 20 20 20 20 19 19 19 19 19 19 19 18 18 18 18 18 18 18 18 18 17 17 17 17 17 17 17 17 17 17 17 17 17 17
23 22 22 22 22 21 21 20 20 20 20 20 19 19 19 19 19 19 18 19 18 18 18 18 18 18 18 18 18 17 17 17 17 17 17 17 17 17 17 17 17 16 16
22 22 22 22 22 21 21 20 20 20 20 20 19 19 19 19 19 19 18 18 18 18 18 18 18 18 18 17 17 17 17 17 17 17 17 17 17 16 16 16 16 16 16
Wind_Speed
4 5 10 11 11 11 11 11 12 12 13 14 15 15 16 16 17 17 17 16 16 16 16 15 15 14 14 14 14 14 14 14 13 13 13 13 12 12 12 12 12 12 13
7 8 11 11 11 11 11 11 12 13 14 14 14 15 15 16 16 16 16 16 16 16 15 14 14 14 14 13 13 13 13 12 12 12 12 12 12 11 11 11 12 11 13
9 9 12 12 12 11 12 12 12 13 14 14 14 14 15 15 16 15 15 15 15 15 15 14 14 13 13 12 12 12 12 12 11 11 11 10 11 11 11 11 12 13 13
11 10 11 13 12 12 13 13 13 13 13 13 13 13 14 14 14 14 14 14 14 14 14 13 13 12 12 12 12 11 11 11 10 10 8 8 9 11 12 12 12 13 13
10 10 12 14 13 13 13 13 13 12 13 13 13 13 13 13 13 13 13 13 13 12 12 12 12 11 11 11 11 11 10 10 9 8 7 7 8 12 12 12 12 12 12
10 11 13 14 13 13 13 12 12 12 12 12 12 12 12 13 13 12 12 12 12 11 11 11 10 10 10 10 9 9 8 8 8 6 7 8 9 12 13 13 12 12 12
9 9 13 14 13 13 12 12 12 11 11 11 11 11 11 12 12 11 11 11 11 11 10 10 10 9 9 9 8 7 7 7 7 6 7 8 10 13 13 12 12 12 11
11 9 11 14 13 12 12 11 11 11 10 10 10 10 10 10 10 10 10 10 10 9 9 9 9 9 8 7 7 6 6 7 7 7 7 8 11 13 13 12 12 12 11
10 9 8 10 11 12 11 11 10 10 9 9 9 9 9 9 8 9 9 9 9 10 9 9 8 8 7 6 5 5 6 7 6 6 6 8 11 13 13 13 12 12 11
8 7 6 7 8 9 9 10 10 9 8 8 8 8 8 7 7 8 8 8 8 9 9 8 7 7 7 6 5 6 6 6 6 6 6 7 11 13 13 13 12 12 11
7 5 5 5 6 7 7 8 8 8 7 7 6 7 6 4 5 5 7 8 8 8 8 8 7 6 6 6 6 6 6 5 6 5 6 9 11 12 12 12 12 12 11
8 7 5 5 5 6 6 6 6 5 5 5 5 5 5 5 5 5 6 7 7 7 7 7 7 7 6 4 5 6 4 5 6 5 7 10 12 12 12 11 11 11 11
9 8 6 6 6 5 3 5 4 3 4 4 4 4 5 4 3 4 3 3 4 5 4 4 5 4 4 4 4 5 6 6 6 6 7 10 11 11 11 10 11 11 11
9 8 7 6 6 5 4 4 4 3 3 3 3 4 4 2 2 2 2 3 3 2 2 2 2 3 3 5 6 6 6 6 7 7 8 10 10 11 11 10 10 11 12
9 8 8 7 6 5 4 3 4 3 3 3 4 4 4 3 2 2 2 2 2 2 2 2 1 2 2 3 5 6 5 6 7 7 7 9 9 9 9 9 10 10 10
9 8 7 7 6 5 4 4 4 4 4 4 3 4 5 4 3 2 2 2 2 2 3 2 2 2 2 2 3 4 5 6 7 7 7 9 9 9 9 9 9 9 9
9 8 8 8 6 6 5 4 4 4 4 3 3 4 4 4 3 3 2 2 2 3 3 2 1 1 2 2 2 3 4 5 6 7 8 7 7 8 8 8 8 9 9
10 9 9 8 7 6 5 4 4 4 5 4 4 3 4 4 4 3 2 1 1 2 2 2 2 2 1 2 2 2 2 3 5 7 8 8 8 7 8 8 9 9 9
11 10 8 7 7 6 5 4 4 4 4 3 3 3 3 3 4 4 2 1 2 2 1 1 2 2 2 1 1 2 2 3 4 6 6 7 8 8 8 8 9 8 8
10 10 9 7 7 6 4 3 3 3 2 2 3 3 4 3 4 4 3 2 3 2 2 2 2 1 1 1 1 0 1 2 3 4 5 6 7 9 9 8 7 8 8
9 9 8 7 6 6 4 3 3 2 2 1 2 2 3 3 4 4 2 2 2 2 2 2 2 2 1 1 2 2 2 1 2 3 3 4 4 6 7 8 7 6 6
11 10 9 8 7 6 5 4 3 3 2 2 2 2 3 3 3 4 3 2 2 2 2 1 2 2 0 1 2 1 2 3 2 1 1 3 4 3 4 6 7 7 5
10 11 10 9 8 7 6 4 3 3 2 2 1 1 1 3 3 3 3 3 2 2 2 1 1 2 1 0 1 3 2 2 2 2 1 1 2 2 2 3 5 6 6
11 10 9 9 8 7 7 6 6 5 3 3 3 2 1 2 3 4 4 3 2 2 1 1 1 1 2 1 1 0 2 3 2 1 2 1 1 2 2 3 4 5 6
9 9 9 8 8 7 7 8 7 5 4 3 3 3 2 1 2 3 3 3 3 2 2 1 1 1 2 2 1 0 0 1 1 2 1 2 1 1 1 2 2 4 6
7 7 8 8 7 7 7 7 7 7 6 5 4 4 2 1 1 2 2 2 2 2 2 1 1 1 1 1 1 1 2 1 1 2 2 1 1 1 1 1 1 2 4
Wind_Direction
148 151 133 121 114 109 105 103 102 103 104 105 106 108 110 111 111 115 122 124 128 131 132 133 132 130 129 130 131 133 132 132 134 135 134 133 135 135 133 131 127 126 129
149 146 130 121 114 109 107 106 105 106 109 108 109 111 113 113 114 117 121 125 129 132 133 134 134 131 130 131 133 136 134 132 133 135 136 137 137 137 137 134 134 133 133
135 137 129 121 116 112 110 108 107 108 111 111 112 113 115 116 117 120 123 125 129 132 135 135 133 132 133 132 134 137 137 136 132 133 133 133 138 141 141 139 140 138 137
134 133 128 122 117 114 112 109 108 110 112 114 115 116 118 120 122 124 126 126 128 131 135 136 135 136 137 137 139 141 141 141 136 137 135 137 143 145 144 142 142 141 141
130 132 130 124 119 117 116 112 111 113 114 115 117 118 121 124 125 127 129 129 129 131 134 138 140 142 142 143 144 145 146 147 143 140 141 144 149 152 152 148 147 147 147
132 134 132 127 125 122 120 117 113 114 117 117 119 121 124 127 129 132 134 134 135 137 140 142 144 145 146 145 146 148 153 154 149 142 146 148 156 160 159 155 154 152 150
135 136 135 130 130 127 125 122 119 117 119 120 120 124 127 132 135 136 139 141 143 146 148 149 150 151 151 150 151 153 158 164 153 147 154 159 166 166 163 161 159 158 156
142 143 141 137 134 132 130 127 125 125 125 127 128 130 133 138 141 143 146 149 152 155 156 155 156 158 160 159 160 163 167 164 156 157 161 171 174 171 167 165 164 165 165
143 143 144 145 141 138 135 133 132 131 131 135 138 138 138 142 148 153 156 158 161 162 164 166 164 166 169 172 172 167 160 164 152 156 167 173 178 176 172 171 171 171 173
138 144 145 147 148 147 145 140 138 137 137 140 146 146 143 147 155 162 165 168 169 170 173 177 178 180 181 184 182 168 162 163 156 165 174 178 176 176 176 176 177 176 178
140 147 145 147 152 157 156 154 150 149 149 150 153 151 144 147 160 171 171 173 178 182 185 190 194 195 194 196 192 180 175 169 167 164 176 182 178 177 178 181 183 182 183
155 161 162 158 158 159 163 157 160 157 158 158 158 158 154 161 174 179 178 177 182 187 194 201 207 208 207 204 201 193 182 176 173 176 181 182 182 184 184 185 189 189 190
160 160 167 167 164 164 162 155 165 159 150 150 151 156 159 164 174 165 165 181 197 201 205 213 221 221 209 202 202 187 181 176 171 184 186 185 185 186 186 188 188 191 195
156 162 166 166 164 169 157 158 164 153 143 154 162 157 150 147 147 157 165 181 197 212 196 203 212 213 203 198 188 185 180 179 174 176 186 189 190 190 192 195 195 193 194
159 163 166 161 160 162 152 158 150 155 156 161 151 155 152 145 154 160 167 176 195 193 183 184 190 179 175 190 190 185 180 177 180 177 184 186 184 185 190 197 201 200 196
162 163 163 158 159 152 152 152 149 153 158 158 152 156 155 157 148 144 140 147 170 182 184 169 170 169 174 173 180 179 178 176 183 183 184 186 188 190 191 194 200 197 193
162 158 158 160 158 155 152 153 145 147 146 146 160 160 153 150 140 135 139 142 169 175 158 133 112 117 135 149 161 173 166 172 177 180 182 184 191 195 194 195 201 198 193
152 153 159 160 156 153 148 144 141 137 136 141 150 150 148 145 141 129 135 150 159 135 126 128 112 112 115 131 163 185 175 177 182 183 184 187 191 194 198 198 204 203 203
157 158 159 155 156 155 150 137 131 127 131 134 141 146 155 147 137 125 128 130 120 105 103 130 103 123 128 137 178 195 198 196 194 188 189 192 192 192 195 202 207 208 211
157 159 159 157 159 153 144 124 112 109 123 127 132 144 152 145 134 127 123 115 101 94 83 94 100 98 139 169 154 148 237 215 190 191 196 195 195 195 199 202 205 215 218
158 158 162 160 165 158 153 152 144 156 161 146 137 138 140 141 141 128 125 116 107 106 118 118 116 97 59 72 67 20 353 313 198 197 194 188 196 196 194 199 203 207 221
169 168 166 166 166 167 172 169 157 153 163 165 147 125 145 135 138 140 124 129 117 111 88 82 105 98 40 98 124 90 6 352 344 244 187 188 202 194 193 195 196 203 208
174 176 174 173 169 169 162 145 127 102 88 101 125 170 163 147 139 128 124 120 109 121 131 127 134 135 164 311 136 140 148 229 299 332 312 183 184 188 201 194 195 201 201
182 176 171 172 170 169 158 152 150 153 159 179 174 165 142 138 140 140 136 127 124 119 110 117 122 136 139 183 315 101 161 170 168 307 341 344 206 190 211 202 191 189 194
176 172 172 169 171 168 163 163 160 165 174 163 146 139 150 149 154 152 148 151 140 132 138 128 94 114 142 157 165 179 66 68 116 147 265 317 338 294 231 197 176 185 193
166 168 168 164 172 172 167 167 169 172 171 158 157 160 170 171 177 159 150 159 149 141 162 160 150 116 124 126 132 133 147 154 185 153 185 232 265 288 279 226 179 186 197
Height
1518 1518 1518 1517 1516 1516 1515 1515 1514 1514 1514 1514 1514 1515 1516 1517 1517 1518 1521 1522 1524 1526 1528 1530 1532 1533 1535 1536 1537 1539 1540 1542 1543 1544 1545 1547 1548 1549 1550 1551 1552 1553 1553
1518 1518 1518 1518 1517 1517 1516 1516 1515 1515 1515 1515 1516 1517 1518 1519 1520 1521 1522 1524 1525 1527 1529 1531 1533 1534 1536 1537 1539 1540 1541 1543 1544 1545 1546 1547 1549 1550 1551 1552 1553 1553 1554
1519 1519 1519 1519 1518 1518 1517 1517 1517 1517 1517 1517 1518 1518 1519 1520 1522 1523 1524 1525 1527 1528 1530 1532 1534 1535 1537 1538 1540 1541 1542 1544 1545 1546 1547 1548 1549 1550 1551 1552 1553 1554 1555
1519 1520 1520 1520 1519 1519 1519 1518 1518 1518 1518 1519 1519 1520 1521 1522 1523 1524 1525 1526 1528 1529 1531 1533 1535 1536 1537 1539 1540 1542 1543 1544 1546 1547 1548 1549 1550 1551 1552 1553 1553 1554 1555
1521 1521 1521 1521 1521 1520 1520 1520 1520 1520 1520 1521 1521 1522 1523 1524 1525 1526 1527 1528 1529 1531 1532 1534 1535 1537 1538 1540 1541 1542 1544 1545 1546 1547 1548 1549 1550 1551 1552 1553 1554 1555 1555
1522 1522 1522 1522 1522 1522 1522 1522 1522 1522 1522 1522 1523 1523 1524 1525 1526 1527 1528 1529 1530 1532 1533 1535 1536 1537 1539 1540 1542 1543 1544 1545 1546 1547 1548 1549 1550 1551 1552 1553 1554 1555 1556
1523 1523 1524 1524 1524 1524 1524 1523 1523 1524 1524 1524 1524 1525 1526 1527 1527 1528 1529 1530 1531 1533 1534 1536 1537 1538 1540 1541 1542 1543 1544 1545 1546 1548 1548 1549 1550 1551 1552 1553 1554 1555 1556
1524 1524 1525 1525 1525 1525 1525 1525 1525 1525 1525 1526 1526 1527 1527 1528 1529 1529 1530 1531 1532 1533 1535 1536 1537 1539 1540 1542 1543 1544 1545 1546 1547 1548 1548 1549 1550 1551 1552 1553 1554 1555 1556
1525 1525 1526 1526 1527 1527 1527 1527 1527 1527 1527 1527 1528 1528 1529 1529 1530 1530 1531 1532 1533 1534 1535 1536 1538 1539 1540 1541 1543 1544 1545 1545 1546 1547 1548 1549 1550 1551 1552 1552 1553 1554 1555
1526 1527 1527 1528 1528 1528 1528 1529 1529 1529 1529 1529 1529 1529 1530 1530 1531 1531 1532 1533 1533 1534 1535 1537 1538 1539 1540 1541 1543 1544 1544 1545 1546 1547 1548 1549 1549 1550 1551 1552 1553 1554 1555
1527 1528 1528 1529 1529 1530 1530 1530 1530 1530 1530 1530 1530 1530 1530 1531 1532 1532 1533 1533 1534 1534 1535 1536 1537 1539 1540 1541 1542 1543 1543 1544 1545 1546 1547 1548 1549 1549 1550 1551 1552 1553 1554
1527 1528 1529 1530 1530 1531 1531 1531 1531 1531 1531 1531 1531 1531 1531 1532 1532 1533 1533 1534 1534 1534 1535 1536 1537 1538 1539 1540 1541 1542 1542 1543 1544 1545 1546 1547 1548 1549 1549 1550 1551 1552 1553
1527 1528 1530 1531 1531 1532 1532 1532 1532 1532 1532 1532 1532 1532 1532 1532 1533 1533 1533 1533 1534 1535 1535 1536 1536 1537 1538 1539 1540 1541 1542 1543 1543 1544 1545 1546 1547 1548 1549 1549 1550 1551 1552
1527 1529 1530 1531 1532 1532 1533 1533 1533 1533 1533 1533 1533 1533 1533 1533 1533 1533 1533 1534 1534 1535 1535 1535 1536 1536 1537 1538 1539 1540 1540 1541 1542 1543 1544 1545 1545 1546 1547 1548 1549 1550 1550
1527 1529 1530 1531 1532 1532 1533 1533 1534 1534 1533 1533 1533 1533 1533 1533 1533 1533 1534 1534 1534 1534 1534 1535 1535 1535 1536 1536 1537 1538 1539 1540 1541 1542 1543 1543 1544 1545 1546 1547 1548 1548 1549
1527 1528 1530 1531 1532 1533 1533 1534 1534 1534 1534 1534 1534 1534 1534 1534 1533 1533 1534 1534 1534 1534 1534 1535 1535 1535 1535 1535 1536 1537 1538 1539 1540 1541 1542 1542 1543 1544 1545 1545 1546 1547 1548
1527 1528 1530 1531 1532 1533 1533 1534 1534 1534 1535 1535 1534 1534 1534 1534 1534 1534 1534 1534 1535 1535 1535 1535 1535 1535 1535 1535 1536 1536 1537 1538 1539 1540 1540 1541 1542 1543 1543 1544 1545 1546 1546
1527 1528 1529 1531 1532 1533 1533 1534 1534 1535 1535 1535 1535 1535 1535 1535 1535 1535 1535 1535 1535 1535 1535 1535 1535 1535 1535 1535 1536 1536 1537 1538 1538 1539 1539 1540 1540 1541 1542 1543 1543 1544 1545
1527 1528 1529 1530 1532 1533 1533 1534 1534 1535 1535 1535 1535 1535 1535 1535 1535 1535 1535 1535 1535 1535 1535 1535 1535 1535 1535 1535 1536 1536 1537 1537 1537 1538 1538 1538 1539 1540 1540 1541 1542 1542 1543
1526 1528 1529 1530 1532 1532 1533 1534 1534 1534 1535 1535 1535 1535 1535 1535 1535 1535 1535 1535 1535 1535 1535 1535 1535 1535 1535 1535 1535 1535 1536 1536 1536 1537 1537 1537 1538 1538 1539 1539 1540 1541 1541
1525 1526 1528 1529 1531 1531 1532 1532 1533 1533 1534 1535 1535 1535 1535 1535 1535 1535 1535 1535 1535 1535 1535 1535 1535 1535 1535 1535 1535 1535 1535 1535 1535 1536 1536 1536 1537 1537 1537 1538 1538 1539 1539
1523 1525 1526 1528 1529 1529 1530 1531 1532 1533 1534 1534 1535 1535 1535 1535 1535 1535 1535 1535 1535 1534 1534 1534 1534 1534 1534 1534 1534 1534 1534 1535 1534 1535 1535 1535 1535 1536 1536 1536 1537 1537 1538
1522 1523 1524 1526 1527 1528 1529 1530 1531 1532 1533 1533 1533 1534 1534 1534 1534 1534 1534 1534 1534 1534 1534 1534 1534 1533 1533 1533 1534 1534 1533 1533 1533 1534 1533 1534 1534 1534 1534 1535 1535 1535 1535
1519 1521 1523 1524 1525 1527 1528 1529 1530 1530 1530 1531 1532 1533 1533 1533 1533 1533 1533 1533 1533 1533 1533 1533 1533 1532 1532 1532 1533 1532 1533 1532 1532 1532 1533 1532 1532 1533 1533 1533 1533 1533 1534
1518 1520 1521 1523 1524 1525 1526 1527 1528 1529 1530 1530 1531 1531 1532 1532 1532 1532 1532 1531 1531 1532 1532 1532 1532 1532 1531 1531 1531 1531 1531 1531 1531 1531 1531 1531 1531 1531 1531 1531 1532 1532 1532
1517 1518 1520 1521 1522 1523 1524 1525 1526 1527 1528 1529 1529 1529 1530 1530 1531 1531 1531 1531 1530 1530 1531 1531 1531 1530 1530 1530 1530 1530 1530 1530 1529 1529 1529 1529 1529 1530 1530 1530 1530 1530 1530